Flag for U.S.A. Weather past 2 weeks in Boston, Massachusetts, U.S.A.

Now
72 °F

Clear.


Feels Like: 69 °F
Forecast: 71 / 85 °F
Wind: 13 mph from Southwest

Location: Logan International Airport

Current Time: Jul 28, 2015 at 2:34:45 AM

Latest Report: Jul 28, 2015 at 1:54 AM


Visibility: 10 mi

Pressure: 29.99 "Hg

Humidity: 91%

Dew point: 69 °F

Location of BostonLocation

Historic Weather in Boston — Graph

°F

Boston temperature yesterday

Maximum temperature yesterday: 84 °F (at 1:54 PM)
Minimum temperature yesterday: 68 °F (at 4:54 AM)
Average temperature yesterday: 75 °F

Past Weeks' High & Low Weather Summary

 TemperatureHumidityPressure
High91 °F (Jul 20, 12:54 PM)100% (Jul 15, 6:54 AM)30.12 "Hg (Jul 15, 6:54 AM)
Low59 °F (Jul 16, 5:54 AM)30% (Jul 22, 1:54 PM)29.54 "Hg (Jul 21, 6:54 PM)
Average73 °F71%29.85 "Hg
* Reported Jul 13 12:54 AM — Jul 28 12:54 AM, Boston, Weather by CustomWeather, © 2015

Note: Actual official high and low records may vary slightly from our data, if they occured in-between our weather recording intervals... More about our weather records

Advertising

Boston weather history for previous 24 hours

 ConditionsComfort  
Time TempWeatherWind HumidityBarometerVisibility
12:54 AM
Tue, Jul 28
72 °FClear.8 mph87%29.99 "Hg10 mi
11:54 PM
Mon, Jul 27
72 °FPassing clouds.7 mph87%30.00 "Hg10 mi
10:54 PM72 °FPassing clouds.9 mph84%30.01 "Hg10 mi
9:54 PM73 °FPassing clouds.8 mph81%30.02 "Hg10 mi
8:54 PM74 °FScattered clouds.8 mph79%29.99 "Hg10 mi
7:54 PM76 °FBroken clouds.12 mph74%29.98 "Hg10 mi
6:54 PM78 °FBroken clouds.12 mph74%29.97 "Hg10 mi
4:54 PM80 °FBroken clouds.10 mph64%29.97 "Hg10 mi
3:54 PM81 °FPartly sunny.13 mph58%29.97 "Hg10 mi
2:54 PM82 °FScattered clouds.12 mph63%29.98 "Hg10 mi
1:54 PM84 °FScattered clouds.9 mph57%29.98 "Hg10 mi
12:54 PM81 °FPartly sunny.17 mph65%30.02 "Hg10 mi
11:54 AM80 °FScattered clouds.10 mph67%30.02 "Hg10 mi
10:54 AM78 °FBroken clouds.14 mph71%30.02 "Hg10 mi
9:54 AM78 °FBroken clouds.6 mph66%30.02 "Hg10 mi
8:54 AM76 °FBroken clouds.5 mph72%30.01 "Hg10 mi
7:54 AM73 °FPartly sunny.10 mph81%30.01 "Hg10 mi
6:54 AM70 °FMostly cloudy.5 mph87%30.01 "Hg10 mi
5:54 AM68 °FMostly cloudy.No wind93%30.01 "Hg10 mi
4:54 AM68 °FPassing clouds.No wind93%29.99 "Hg10 mi
3:54 AM69 °FPassing clouds.No wind93%29.98 "Hg10 mi
2:54 AM70 °FMostly cloudy.No wind93%29.98 "Hg10 mi
Weather by CustomWeather, © 2015

See weather overviewHow to use our weather pages